EDRS-C

Last updated on Sat Sep 12 2026 00:03:04 GMT+0000 (Coordinated Universal Time)

1 44475U 19049A 26253.87266916 -.00000281 00000+0 00000+0 0 9990 2 44475 0.0196 205.0012 0000931 334.2507 267.3037 1.00270461 26062
UTC large
Height (km)
Speed (km/s)
/
Latitude / Longitude
Inclination (degrees)
Orbital Period (minutes)
Azimuth
Elevation
Range (km)
Doppler Factor

Next 0 passes for location: London (51.5072 / 0.1276)

No passes found over London.
EDRS-C